Location: Belfast
(54.5830°N, 5.9330°W)
Time: 02:47:51
(UTC+01:00)

Coronas F rocket - Visible Passes

Search period start: 19 April 2014 00:00
Search period end: 29 April 2014 00:00
Orbit: 404 x 423 km, 82.5° (Epoch: 17 April)

Date Brightness Start Highest point End Pass type
(mag) Time Alt. Az. Time Alt. Az. Time Alt. Az.
19 Apr 3.2 01:36:45 10° N 01:39:02 39° NNE 01:39:02 39° NNE visible
19 Apr 4.5 03:11:48 10° WNW 03:11:56 10° WNW 03:11:56 10° WNW visible
20 Apr 3.8 00:50:18 10° NNE 00:52:34 23° NE 00:52:34 23° NE visible
20 Apr 3.7 02:23:46 10° NNW 02:25:28 23° NW 02:25:28 23° NW visible
21 Apr 4.6 00:05:01 10° NE 00:05:48 11° ENE 00:06:04 11° ENE visible
21 Apr 2.9 01:36:39 10° NNW 01:38:58 42° NNW 01:38:58 42° NNW visible
22 Apr 3.3 00:49:56 10° N 00:52:27 31° NE 00:52:27 31° NE visible
22 Apr 4.0 02:23:55 10° NW 02:25:21 17° WNW 02:25:21 17° WNW visible
23 Apr 4.2 00:03:49 10° NNE 00:05:46 15° ENE 00:05:54 15° ENE visible
23 Apr 3.0 01:36:29 10° NNW 01:38:48 38° NW 01:38:48 38° NW visible
24 Apr 2.7 00:49:32 10° N 00:52:14 44° NE 00:52:14 44° NE visible
24 Apr 4.3 02:24:10 10° NW 02:25:07 13° WNW 02:25:07 13° WNW visible
25 Apr 3.7 00:03:02 10° NNE 00:05:34 20° ENE 00:05:38 20° ENE visible
25 Apr 3.3 01:36:15 10° NNW 01:38:31 30° WNW 01:38:31 30° WNW visible
26 Apr 2.2 00:49:04 10° N 00:51:54 62° N 00:51:54 62° N visible
27 Apr 3.2 00:02:17 10° N 00:05:11 28° ENE 00:05:15 28° ENE visible
27 Apr 3.6 01:36:00 10° NW 01:38:08 23° WNW 01:38:08 23° WNW visible
27 Apr 4.2 23:16:16 10° NE 23:17:45 13° ENE 23:18:35 12° ENE visible
28 Apr 2.1 00:48:31 10° NNW 00:51:28 61° WNW 00:51:28 61° WNW visible
